Location: Newark
(54.2500°N, 9.1833°E)
Time: 07:39:34
(UTC+00:00)

Transit 4A - Pass Details

Date: 18 December 2019
Orbit: 872 x 973 km, 66.8° (Epoch: 27 January)

Event Time Altitude Azimuth Distance (km) Brightness Sun altitude
Rises 17:55:25 0° 275° (W) 3,559 12.3 -23.9°
Reaches altitude 10° 17:58:22 10° 287° (WNW) 2,601 11.1 -24.3°
Maximum altitude 18:03:27 27° 345° (NNW) 1,645 9.2 -25.1°
Enters shadow 18:05:11 24° 12° (NNE) 1,777 9.2 -25.3°
